When you browse on this site, cookies collect data to enhance your experience and personalize the content and advertising you see.
Visit our Privacy Policy to learn more. By continuing to use the site, you agree to this use of cookies and data.
  • în România
  • Lista ţărilor
  • Pe 7 zile
  • Temperatura apei
  • Hartă satelitară
  • Meteo pe hartă
  • Widget-uri
  • user-avatar
    Intrare

    Meteo pe oră la Szekesfehervar

    Astăzi, 22 Ianuarie, Marţi

    Timp Temperatura Precipitaţii Vânt Presiune Umiditate
    00:00 -1°C° 0 mm 1 m/s 754 mmHg 57%
    01:00 -2°C° 0 mm 1 m/s 753 mmHg 69%
    02:00 -2°C° 0 mm 1 m/s 753 mmHg 70%
    03:00 -2°C° 0 mm 1 m/s 753 mmHg 71%
    04:00 -2°C° 0 mm 1 m/s 752 mmHg 71%
    05:00 -2°C° 0 mm 1 m/s 752 mmHg 74%
    06:00 -2°C° 0 mm 1 m/s 751 mmHg 76%
    07:00 -3°C° 0 mm 1 m/s 751 mmHg 77%
    08:00 -2°C° 0 mm 1 m/s 751 mmHg 75%
    09:00 -4°C° 0 mm 2 m/s 751 mmHg 73%
    10:00 -3°C° 0 mm 2 m/s 751 mmHg 72%
    11:00 -2°C° 0 mm 2 m/s 750 mmHg 70%
    12:00 -2°C° 0 mm 2 m/s 749 mmHg 68%
    13:00 -1°C° 0 mm 2 m/s 749 mmHg 66%
    14:00 -2°C° 0 mm 2 m/s 748 mmHg 70%
    15:00 -2°C° 0 mm 2 m/s 748 mmHg 73%
    16:00 -3°C° 0 mm 2 m/s 747 mmHg 77%
    17:00 -3°C° 0 mm 2 m/s 746 mmHg 80%
    18:00 -3°C° 0 mm 2 m/s 746 mmHg 82%
    19:00 -4°C° 0 mm 2 m/s 745 mmHg 84%
    20:00 -4°C° 0 mm 2 m/s 745 mmHg 86%
    21:00 -4°C° 0 mm 2 m/s 745 mmHg 87%
    22:00 -4°C° 0 mm 2 m/s 744 mmHg 88%
    23:00 -4°C° 0 mm 2 m/s 744 mmHg 87%

    Mâine, 23 Ianuarie, Miercuri

    Timp Temperatura Precipitaţii Vânt Presiune Umiditate
    00:00 -4°C° 0 mm 2 m/s 743 mmHg 87%
    01:00 -4°C° 0 mm 2 m/s 743 mmHg 86%
    02:00 -4°C° 0 mm 2 m/s 742 mmHg 86%
    03:00 -4°C° 0 mm 2 m/s 742 mmHg 86%
    04:00 -4°C° 0 mm 2 m/s 741 mmHg 86%
    05:00 -4°C° 0.3 mm 2 m/s 741 mmHg 88%
    06:00 -4°C° 0.3 mm 2 m/s 741 mmHg 90%
    07:00 -4°C° 0.3 mm 2 m/s 740 mmHg 93%
    08:00 -4°C° 0.4 mm 2 m/s 740 mmHg 92%
    09:00 -3°C° 0.4 mm 2 m/s 740 mmHg 92%
    10:00 -3°C° 0.4 mm 2 m/s 740 mmHg 92%
    11:00 -3°C° 0.3 mm 2 m/s 740 mmHg 92%
    12:00 -2°C° 0.3 mm 2 m/s 740 mmHg 91%
    13:00 -2°C° 0.3 mm 2 m/s 740 mmHg 90%
    14:00 -2°C° 0.1 mm 2 m/s 739 mmHg 91%
    15:00 -2°C° 0.1 mm 2 m/s 739 mmHg 91%
    16:00 -2°C° 0.1 mm 2 m/s 739 mmHg 92%
    17:00 -2°C° 0 mm 2 m/s 740 mmHg 93%
    18:00 -2°C° 0 mm 2 m/s 740 mmHg 94%
    19:00 -3°C° 0 mm 2 m/s 740 mmHg 95%
    20:00 -3°C° 0 mm 2 m/s 740 mmHg 95%
    21:00 -3°C° 0 mm 2 m/s 740 mmHg 95%
    22:00 -3°C° 0 mm 2 m/s 741 mmHg 95%
    23:00 -3°C° 0 mm 2 m/s 741 mmHg 95%

    Poimâine, 24 Ianuarie, Joi

    Timp Temperatura Precipitaţii Vânt Presiune Umiditate
    00:00 -3°C° 0 mm 2 m/s 741 mmHg 95%
    01:00 -3°C° 0 mm 2 m/s 741 mmHg 94%
    02:00 -3°C° 0 mm 2 m/s 741 mmHg 94%
    03:00 -3°C° 0 mm 2 m/s 741 mmHg 94%
    04:00 -1°C° 0 mm 1 m/s 741 mmHg 94%
    05:00 -1°C° 0 mm 1 m/s 741 mmHg 93%
    06:00 -3°C° 0 mm 2 m/s 742 mmHg 93%
    07:00 -3°C° 0 mm 2 m/s 742 mmHg 93%
    08:00 -2°C° 0 mm 2 m/s 742 mmHg 90%
    09:00 -2°C° 0 mm 2 m/s 742 mmHg 88%
    10:00 -1°C° 0 mm 2 m/s 743 mmHg 86%
    11:00 -1°C° 0 mm 3 m/s 742 mmHg 85%
    12:00 0°C° 0 mm 3 m/s 742 mmHg 83%
    13:00 -1°C° 0 mm 4 m/s 742 mmHg 82%
    14:00 -1°C° 0 mm 4 m/s 742 mmHg 82%
    15:00 -2°C° 0 mm 5 m/s 742 mmHg 82%
    16:00 -2°C° 0 mm 5 m/s 742 mmHg 82%
    17:00 -4°C° 0 mm 5 m/s 742 mmHg 82%
    18:00 -4°C° 0 mm 5 m/s 742 mmHg 81%
    19:00 -5°C° 0 mm 6 m/s 743 mmHg 80%
    20:00 -5°C° 0 mm 6 m/s 743 mmHg 80%
    21:00 -6°C° 0 mm 6 m/s 743 mmHg 81%
    22:00 -6°C° 0 mm 6 m/s 743 mmHg 81%
    23:00 -6°C° 0 mm 6 m/s 743 mmHg 81%

    25 Ianuarie, Vineri

    Timp Temperatura Precipitaţii Vânt Presiune Umiditate
    00:00 -7°C° 0 mm 7 m/s 743 mmHg 80%
    01:00 -7°C° 0 mm 7 m/s 743 mmHg 80%
    02:00 -7°C° 0 mm 7 m/s 743 mmHg 80%
    03:00 -7°C° 0 mm 7 m/s 743 mmHg 80%
    04:00 -8°C° 0 mm 8 m/s 742 mmHg 79%
    05:00 -7°C° 0 mm 8 m/s 743 mmHg 79%
    06:00 -7°C° 0 mm 8 m/s 743 mmHg 78%
    07:00 -7°C° 0 mm 8 m/s 743 mmHg 78%
    08:00 -7°C° 0 mm 8 m/s 743 mmHg 77%
    09:00 -8°C° 0 mm 9 m/s 743 mmHg 76%
    10:00 -6°C° 0 mm 9 m/s 743 mmHg 75%
    11:00 -6°C° 0 mm 9 m/s 743 mmHg 74%
    12:00 -5°C° 0 mm 9 m/s 743 mmHg 72%
    13:00 -5°C° 0 mm 9 m/s 743 mmHg 71%
    14:00 -5°C° 0 mm 9 m/s 743 mmHg 71%
    15:00 -5°C° 0 mm 9 m/s 743 mmHg 71%
    16:00 -5°C° 0 mm 9 m/s 743 mmHg 71%
    17:00 -5°C° 0 mm 9 m/s 743 mmHg 71%
    18:00 -6°C° 0 mm 9 m/s 743 mmHg 72%
    19:00 -6°C° 0 mm 9 m/s 743 mmHg 73%
    20:00 -6°C° 0 mm 9 m/s 743 mmHg 72%
    21:00 -7°C° 0 mm 10 m/s 743 mmHg 72%
    22:00 -7°C° 0 mm 10 m/s 743 mmHg 72%
    23:00 -8°C° 0 mm 10 m/s 743 mmHg 73%

    26 Ianuarie, Sâmbătă

    Timp Temperatura Precipitaţii Vânt Presiune Umiditate
    00:00 -8°C° 0 mm 10 m/s 743 mmHg 73%
    01:00 -8°C° 0 mm 11 m/s 743 mmHg 73%
    02:00 -8°C° 0.1 mm 11 m/s 743 mmHg 74%
    03:00 -8°C° 0.1 mm 11 m/s 743 mmHg 75%
    04:00 -8°C° 0.1 mm 11 m/s 743 mmHg 75%
    05:00 -8°C° 0.1 mm 11 m/s 743 mmHg 75%
    06:00 -8°C° 0.1 mm 11 m/s 743 mmHg 75%
    07:00 -8°C° 0.1 mm 11 m/s 743 mmHg 75%
    08:00 -8°C° 0.1 mm 11 m/s 744 mmHg 75%
    09:00 -8°C° 0.1 mm 11 m/s 744 mmHg 75%
    10:00 -8°C° 0.1 mm 10 m/s 744 mmHg 74%
    11:00 -8°C° 0.1 mm 10 m/s 744 mmHg 73%
    12:00 -7°C° 0.1 mm 10 m/s 744 mmHg 73%
    13:00 -7°C° 0.1 mm 10 m/s 744 mmHg 72%
    14:00 -6°C° 0.1 mm 9 m/s 744 mmHg 72%
    15:00 -6°C° 0.1 mm 9 m/s 744 mmHg 72%
    16:00 -6°C° 0.1 mm 8 m/s 744 mmHg 72%
    17:00 -6°C° 0.1 mm 8 m/s 745 mmHg 73%
    18:00 -6°C° 0.1 mm 8 m/s 745 mmHg 74%
    19:00 -6°C° 0.1 mm 8 m/s 745 mmHg 75%
    20:00 -6°C° 0.1 mm 7 m/s 745 mmHg 76%
    21:00 -6°C° 0.1 mm 7 m/s 745 mmHg 77%
    22:00 -6°C° 0.1 mm 7 m/s 745 mmHg 78%
    23:00 -6°C° 0.1 mm 6 m/s 745 mmHg 79%

    27 Ianuarie, Duminică

    Timp Temperatura Precipitaţii Vânt Presiune Umiditate
    00:00 -6°C° 0.1 mm 6 m/s 745 mmHg 80%
    01:00 -6°C° 0.1 mm 6 m/s 745 mmHg 82%
    02:00 -6°C° 0.1 mm 5 m/s 745 mmHg 82%
    03:00 -6°C° 0.1 mm 5 m/s 745 mmHg 83%
    04:00 -5°C° 0.1 mm 4 m/s 745 mmHg 83%
    05:00 -5°C° 0 mm 4 m/s 745 mmHg 83%
    06:00 -5°C° 0 mm 4 m/s 745 mmHg 83%
    07:00 -5°C° 0 mm 3 m/s 745 mmHg 83%
    08:00 -5°C° 0 mm 3 m/s 745 mmHg 83%
    09:00 -4°C° 0 mm 3 m/s 745 mmHg 83%
    10:00 -3°C° 0 mm 2 m/s 745 mmHg 82%
    11:00 -3°C° 0 mm 2 m/s 745 mmHg 82%
    12:00 -2°C° 0 mm 2 m/s 745 mmHg 81%
    13:00 -2°C° 0 mm 2 m/s 745 mmHg 80%
    14:00 0°C° 0 mm 1 m/s 745 mmHg 82%
    15:00 0°C° 0 mm 1 m/s 745 mmHg 83%
    16:00 -1°C° 0 mm 0 m/s 745 mmHg 85%
    17:00 -1°C° 0 mm 0 m/s 745 mmHg 86%
    18:00 -1°C° 0 mm 0 m/s 745 mmHg 87%
    19:00 -1°C° 0 mm 0 m/s 745 mmHg 88%
    20:00 -1°C° 0 mm 0 m/s 746 mmHg 89%
    21:00 -1°C° 0 mm 0 m/s 746 mmHg 89%
    22:00 0°C° 0 mm 1 m/s 746 mmHg 90%
    23:00 -1°C° 0 mm 1 m/s 746 mmHg 90%
    Arată mai mult